Regional Weather Roundup
Issued by NWS State College, PA

Home | Current Version | Previous Version | Graphics & Text | Print | Product List | Glossary Off
Versions: 1 2 3 4 5 6 7 8 9 10 11 12 13 14 15 16 17 18 19 20 21 22 23 24 25 26 27 28 29 30 31 32 33 34 35 36 37 38 39 40 41 42 43 44 45 46 47 48 49 50

495
ASUS41 KCTP 240103
RWRCTP

REGIONAL WEATHER ROUNDUP
NATIONAL WEATHER SERVICE STATE COLLEGE PA
900 PM EDT THU MAR 23 2017

Note: "fair" indicates few or no clouds below 12,000 feet with no
significant weather and/or obstructions to visibility.

* = STATION THAT DOES NOT REPORT PRECIPITATION /E.G. RAIN...SNOW...ETC/
    THUNDER OR FOG.

PAZ002>004-007>009-013>016-020>023-029>032-240200-
WESTERN PENNSYLVANIA

CITY           SKY/WX    TMP DP  RH WIND       PRES   REMARKS
ERIE           CLOUDY    33  24  69 CALM      30.35S
MEADVILLE      CLEAR     40   4  22 VRB3      30.33S
FRANKLIN*      CLEAR     39   3  22 SE5       30.36S
NEW CASTLE     FAIR      41   3  20 E6        30.35S
BEAVER COUNTY  CLEAR     43   3  19 E3        30.34S
BUTLER*        CLEAR     36  14  41 CALM      30.36S
PITTSBURGH INT PTCLDY    45   5  19 E3        30.34S
PITTSBURGH     CLEAR     46  -1  14 CALM      30.34R
INDIANA*       CLEAR     41   1  19 SE7       30.39R
LATROBE        CLEAR     45   9  23 S6        30.35S
WASHINGTON CO* CLEAR     36  16  44 CALM      30.35S
$$

PAZ004>006-010>012-017>019-024>028-033>037-041-042-045-046-049>053-240200-
CENTRAL PENNSYLVANIA

CITY           SKY/WX    TMP DP  RH WIND       PRES   REMARKS
BRADFORD       CLEAR     29  13  51 SE3       30.34F
DUBOIS         CLEAR     38   6  26 SE7       30.35R
CLEARFIELD       N/A    N/A N/A N/A MISG      30.39R
JOHNSTOWN      CLEAR     36   3  25 SE9       30.34S
ALTOONA        CLEAR     38   7  27 SE3       30.41R
STATE COLLEGE  CLEAR     37   7  28 CALM      30.43R
WILLIAMSPORT   CLEAR     35  12  38 E7        30.49R
SELINSGROVE    CLEAR     32  19  58 CALM      30.50R
FT INDIANTOWN  CLEAR     33  14  45 CALM      30.50R
CAPITAL CITY   CLEAR     37  14  38 CALM      30.49S
HARRISBURG     PTCLDY    38  24  57 CALM      30.49S
YORK           CLEAR     29  19  66 CALM      30.48S
$$

PAZ038>040-043-044-047-048-054-055-060>062-067>071-240200-
EASTERN PENNSYLVANIA

CITY           SKY/WX    TMP DP  RH WIND       PRES   REMARKS
SCRANTON       CLEAR     32  11  41 E6        30.49R
MOUNT POCONO   CLEAR     24   8  50 NW3       30.45R
ALLENTOWN      CLEAR     37   5  26 SW3       30.52R
QUAKERTOWN*    CLEAR     32  14  47 CALM      30.52R
READING        CLEAR     37  13  37 S3        30.50S
LANCASTER      CLEAR     36  15  42 E5        30.51R
COATESVILLE    CLEAR     36  10  35 CALM      30.53R
POTTSTOWN      CLEAR     33  13  43 CALM      30.53S
BLUE BELL      CLEAR     32  18  55 CALM      30.52S
DOYLESTOWN     CLEAR     27   9  46 CALM      30.51R
WILLOW GROVE   NOT AVBL
NORTH PHILA    CLEAR     40   9  28 CALM      30.55R
PHILADELPHIA   CLEAR     40  13  33 S6        30.55R
$$




USA.gov is the U.S. government's official web portal to all federal, state and local government web resources and services.